DW7744 Weather Reports


Display with metric or nautical units.
time (UTC)temp
F
wind
direction
speed
MPH
gust
MPH
rain 1hr
in
rain 24hr
in
rain mn
in
humidity
%
barometer
mb
20260902125404 78 254 8.0 12.0 0.00 0.00 0.00 42 950.7
20260902124905 78 280 8.0 12.0 0.00 0.00 0.00 42 950.7
20260902124406 78 228 8.0 14.0 0.00 0.00 0.00 44 950.9
20260902123906 78 250 6.0 14.0 0.00 0.00 0.00 43 950.9
20260902123403 78 256 6.0 9.0 0.00 0.00 0.00 44 950.9
20260902122907 78 224 8.0 10.0 0.00 0.00 0.00 46 950.9
20260902122406 78 214 10.0 22.0 0.00 0.00 0.00 44 950.9
20260902121905 78 252 9.0 22.0 0.00 0.00 0.00 43 950.9
20260902120904 78 256 6.0 12.0 0.00 0.00 0.00 40 951.0
20260902120404 79 259 5.0 9.0 0.00 0.00 0.00 40 951.0
20260902115904 79 253 4.0 8.0 0.00 0.00 0.00 40 951.3
20260902115404 78 237 3.0 8.0 0.00 0.00 0.00 43 951.3
20260902114910 77 85 5.0 6.0 0.00 0.00 0.00 45 951.3
20260902114403 77 239 6.0 6.0 0.00 0.00 0.00 46 951.4
20260902113904 76 306 5.0 13.0 0.00 0.00 0.00 45 951.4
20260902113404 76 252 5.0 13.0 0.00 0.00 0.00 47 951.4
20260902112903 76 252 6.0 5.0 0.00 0.00 0.00 48 951.5
20260902112404 75 338 7.0 8.0 0.00 0.00 0.00 50 951.5
20260902110904 74 235 8.0 18.0 0.00 0.00 0.00 51 951.7
20260902105904 74 253 7.0 12.0 0.00 0.00 0.00 54 951.9
20260902105404 74 222 6.0 12.0 0.00 0.00 0.00 53 951.9
20260902104904 74 251 6.0 10.0 0.00 0.00 0.00 56 951.9
20260902104404 74 252 6.0 10.0 0.00 0.00 0.00 54 952.1
20260902103904 73 239 6.0 7.0 0.00 0.00 0.00 55 952.1
20260902103404 73 244 3.0 9.0 0.00 0.00 0.00 57 952.1
20260902102903 72 245 4.0 9.0 0.00 0.00 0.00 58 952.2
20260902101903 71 285 6.0 22.0 0.00 0.00 0.00 59 952.2
20260902101404 71 237 6.0 22.0 0.00 0.00 0.00 60 952.3
20260902100904 71 279 6.0 22.0 0.00 0.00 0.00 60 952.3
20260902095904 70 237 4.0 9.0 0.00 0.00 0.00 65 952.2
20260902095403 70 334 2.0 9.0 0.00 0.00 0.00 64 952.2
20260902094904 70 239 2.0 7.0 0.00 0.00 0.00 65 952.2
20260902093903 69 260 2.0 5.0 0.00 0.00 0.00 67 952.3
20260902093403 69 237 2.0 3.0 0.00 0.00 0.00 66 952.3
20260902092903 69 65 2.0 3.0 0.00 0.00 0.00 71 952.1
20260902092404 69 84 2.0 3.0 0.00 0.00 0.00 71 952.1
20260902091904 69 116 2.0 3.0 0.00 0.00 0.00 72 952.1
20260902091404 69 107 2.0 3.0 0.00 0.00 0.00 73 952.2
20260902090904 69 141 2.0 3.0 0.00 0.00 0.00 74 952.2
20260902090403 69 103 2.0 5.0 0.00 0.00 0.00 75 952.2
20260902085904 68 97 2.0 5.0 0.00 0.00 0.00 76 951.8
20260902085404 68 117 2.0 5.0 0.00 0.00 0.00 77 951.8
20260902084903 67 119 2.0 5.0 0.00 0.00 0.00 77 951.8
20260902084407 67 129 1.0 5.0 0.00 0.00 0.00 78 951.5
20260902083904 67 115 1.0 2.0 0.00 0.00 0.00 77 951.5
20260902083403 67 115 3.0 5.0 0.00 0.00 0.00 78 951.5
20260902082904 66 115 3.0 5.0 0.00 0.00 0.00 79 951.4
20260902082406 66 99 2.0 5.0 0.00 0.00 0.00 81 951.4
20260902081903 65 66 2.0 5.0 0.00 0.00 0.00 81 951.4
20260902081403 65 114 2.0 5.0 0.00 0.00 0.00 80 951.4
20260902080904 65 118 2.0 3.0 0.00 0.00 0.00 80 951.4
20260902080404 65 123 2.0 3.0 0.00 0.00 0.00 81 951.4
20260902075904 64 108 2.0 3.0 0.00 0.00 0.00 82 951.3
20260902075404 64 113 0.0 3.0 0.00 0.00 0.00 81 951.3
20260902074403 64 112 1.0 2.0 0.00 0.00 0.00 81 951.4
20260902073903 64 112 1.0 2.0 0.00 0.00 0.00 81 951.4
20260902073404 64 112 0.0 2.0 0.00 0.00 0.00 81 951.4
20260902072903 64 112 0.0 3.0 0.00 0.00 0.00 81 951.2
20260902072404 64 112 2.0 3.0 0.00 0.00 0.00 81 951.2
20260902071904 63 112 3.0 5.0 0.00 0.00 0.00 83 951.2
20260902071404 63 115 3.0 7.0 0.00 0.00 0.00 84 951.1
20260902070903 63 111 3.0 7.0 0.00 0.00 0.00 84 951.1
20260902070404 62 110 2.0 5.0 0.00 0.00 0.00 84 951.1
20260902065904 62 112 2.0 5.0 0.00 0.00 0.00 83 951.2
20260902065404 62 126 0.0 2.0 0.00 0.00 0.00 82 951.2
20260902064904 62 189 0.0 2.0 0.00 0.00 0.00 82 951.2
20260902064404 62 105 2.0 3.0 0.00 0.00 0.00 82 951.2
20260902063903 62 97 2.0 5.0 0.00 0.00 0.00 83 951.2
20260902063404 61 97 2.0 5.0 0.00 0.00 0.00 84 951.2
20260902062404 61 101 2.0 5.0 0.00 0.00 0.00 85 951.2
20260902061904 61 114 2.0 5.0 0.00 0.00 0.00 85 951.2
20260902061404 60 115 2.0 3.0 0.00 0.00 0.00 84 951.2
20260902060904 60 115 2.0 3.0 0.00 0.00 0.00 83 951.2
20260902060404 60 132 0.0 2.0 0.00 0.00 0.00 82 951.2
20260902055904 60 122 0.0 2.0 0.00 0.00 0.00 82 951.0
20260902055403 60 151 0.0 2.0 0.00 0.00 0.00 83 951.0
20260902054903 60 152 0.0 2.0 0.00 0.00 0.00 83 951.0
20260902054403 60 153 0.0 2.0 0.00 0.00 0.00 83 950.9
20260902053903 60 170 0.0 3.0 0.00 0.00 0.00 83 950.9
20260902053403 60 174 0.0 3.0 0.00 0.00 0.00 83 950.9
20260902052904 59 176 0.0 2.0 0.00 0.00 0.00 82 950.7
20260902052404 59 212 0.0 0.0 0.00 0.00 0.00 82 950.7
20260902051904 59 212 0.0 0.0 0.00 0.00 0.00 82 950.7
20260902051404 59 213 2.0 5.0 0.00 0.00 0.00 82 950.7
20260902050904 59 213 2.0 5.0 0.00 0.00 0.00 82 950.7
20260902050404 59 213 1.0 2.0 0.00 0.00 0.00 82 950.7
20260902045404 59 162 1.0 2.0 0.00 0.00 0.00 81 950.6
20260902044903 59 136 1.0 3.0 0.00 0.00 0.00 81 950.6
20260902044404 59 102 0.0 3.0 0.00 0.00 0.00 80 950.7
20260902043903 59 102 0.0 3.0 0.00 0.00 0.00 80 950.7
20260902043404 59 214 0.0 0.0 0.00 0.00 0.00 80 950.7
20260902042904 59 214 0.0 3.0 0.00 0.00 0.00 80 950.6
20260902042404 59 214 0.0 3.0 0.00 0.00 0.00 80 950.6
20260902041903 59 214 0.0 3.0 0.00 0.00 0.00 80 950.6
20260902040904 59 213 2.0 2.0 0.00 0.00 0.00 80 950.6
20260902040403 60 213 0.0 2.0 0.00 0.00 0.00 79 950.6
20260902035404 59 136 0.0 2.0 0.00 0.00 0.00 80 950.6
20260902034904 60 134 0.0 2.0 0.00 0.00 0.00 79 950.6
20260902034404 60 131 0.0 0.0 0.00 0.00 0.00 79 950.7
20260902033903 60 130 0.0 0.0 0.00 0.00 0.00 79 950.7
20260902033404 60 130 0.0 0.0 0.00 0.00 0.00 79 950.7
20260902032904 60 130 0.0 0.0 0.00 0.00 0.00 78 950.6
20260902031903 60 130 1.0 2.0 0.00 0.00 0.00 77 950.6
20260902031404 60 130 0.0 2.0 0.00 0.00 0.00 77 950.6
20260902030404 60 195 0.0 2.0 0.00 0.00 0.00 77 950.6
20260902025904 60 194 0.0 2.0 0.00 0.00 0.00 76 950.6
20260902025403 60 189 0.0 2.0 0.00 0.00 0.00 76 950.6
20260902024903 60 163 0.0 1.0 0.00 0.00 0.00 76 950.6
20260902024403 60 163 1.0 2.0 0.00 0.00 0.00 76 950.7
20260902023904 60 163 1.0 2.0 0.00 0.00 0.00 75 950.7
20260902023404 61 163 0.0 2.0 0.00 0.00 0.00 75 950.7
20260902022904 61 164 0.0 2.0 0.00 0.00 0.00 75 950.6
20260902020904 61 226 0.0 0.0 0.00 0.00 0.00 74 950.5
20260902020403 61 226 2.0 2.0 0.00 0.00 0.00 73 950.5
20260902014404 62 226 2.0 5.0 0.00 0.00 0.00 72 950.8
20260902013903 62 226 2.0 3.0 0.00 0.00 0.00 71 950.8
20260902013403 63 217 0.0 2.0 0.00 0.00 0.00 71 950.8
20260902012903 63 177 0.0 1.0 0.00 0.00 0.00 71 950.8
20260902011904 63 177 0.0 0.0 0.00 0.00 0.00 71 950.8
20260902011404 63 177 0.0 0.0 0.00 0.00 0.00 71 950.9
20260902010904 63 177 0.0 0.0 0.00 0.00 0.00 72 950.9
20260902005904 63 177 1.0 3.0 0.00 0.00 0.00 72 950.8
20260902005404 63 177 2.0 3.0 0.00 0.00 0.00 71 950.8
20260902003903 62 219 2.0 2.0 0.00 0.00 0.00 71 950.8
20260902002904 62 198 2.0 3.0 0.00 0.00 0.00 71 950.8
20260902002404 62 223 1.0 2.0 0.00 0.00 0.00 71 950.8
20260902001404 63 232 2.0 5.0 0.00 0.00 0.00 71 950.9
20260902000904 63 232 2.0 5.0 0.00 0.00 0.00 70 950.9
20260902000406 63 232 2.0 5.0 0.00 0.00 0.00 69 950.9
20260901235904 63 232 2.0 5.0 0.00 0.00 0.00 69 950.9
20260901235403 63 228 2.0 5.0 0.00 0.00 0.00 68 950.9
20260901234903 63 213 2.0 3.0 0.00 0.00 0.00 67 950.9
20260901234404 63 212 1.0 2.0 0.00 0.00 0.00 66 950.9
20260901233904 63 189 1.0 2.0 0.00 0.00 0.00 65 950.9
20260901233404 63 176 2.0 3.0 0.00 0.00 0.00 64 950.9
20260901232904 64 220 2.0 3.0 0.00 0.00 0.00 64 950.8
20260901231904 64 103 0.0 2.0 0.00 0.00 0.00 63 950.8
20260901231404 64 103 2.0 2.0 0.00 0.00 0.00 63 950.9
20260901230903 64 103 2.0 3.0 0.00 0.00 0.00 63 950.9
20260901230404 65 103 2.0 3.0 0.00 0.00 0.00 62 950.9
20260901225904 65 99 2.0 3.0 0.00 0.00 0.00 64 950.9
20260901225404 65 205 1.0 2.0 0.00 0.00 0.00 63 950.9
20260901224904 65 231 1.0 2.0 0.00 0.00 0.00 62 950.9
20260901224405 65 231 2.0 2.0 0.00 0.00 0.00 62 951.0
20260901223904 65 231 2.0 3.0 0.00 0.00 0.00 61 951.0
20260901223404 65 231 1.0 3.0 0.00 0.00 0.00 61 951.0
20260901222903 65 231 1.0 2.0 0.00 0.00 0.00 61 951.0
20260901222403 65 231 3.0 5.0 0.00 0.00 0.00 61 951.0
20260901221903 65 231 3.0 5.0 0.00 0.00 0.00 61 951.0
20260901220904 65 228 2.0 3.0 0.00 0.00 0.00 60 951.1
20260901220404 65 227 2.0 5.0 0.00 0.00 0.00 61 951.1
20260901215403 65 228 2.0 6.0 0.00 0.00 0.00 61 951.2
20260901214903 65 228 2.0 6.0 0.00 0.00 0.00 61 951.2
20260901214403 65 227 2.0 3.0 0.00 0.00 0.00 61 951.2
20260901213903 65 211 2.0 3.0 0.00 0.00 0.00 60 951.2
20260901212904 66 131 1.0 2.0 0.00 0.00 0.00 59 951.1
20260901212404 66 124 2.0 2.0 0.00 0.00 0.00 58 951.1
20260901211903 66 124 2.0 2.0 0.00 0.00 0.00 58 951.1
20260901211404 67 124 2.0 5.0 0.00 0.00 0.00 58 951.1
20260901210903 67 133 2.0 5.0 0.00 0.00 0.00 57 951.1
20260901210403 67 229 2.0 3.0 0.00 0.00 0.00 57 951.1
20260901205903 67 229 2.0 5.0 0.00 0.00 0.00 57 951.1
20260901205404 67 229 2.0 5.0 0.00 0.00 0.00 57 951.1
20260901204903 67 230 2.0 5.0 0.00 0.00 0.00 57 951.1
20260901204404 67 230 0.0 3.0 0.00 0.00 0.00 57 951.1
20260901203904 67 229 0.0 2.0 0.00 0.00 0.00 56 951.1
20260901203404 67 229 2.0 3.0 0.00 0.00 0.00 55 951.1
20260901202903 67 229 2.0 3.0 0.00 0.00 0.00 55 951.1
20260901201903 67 229 3.0 5.0 0.00 0.00 0.00 54 951.1
20260901201404 68 226 3.0 5.0 0.00 0.00 0.00 55 951.1
20260901200904 68 219 3.0 5.0 0.00 0.00 0.00 55 951.1
20260901195411 68 226 3.0 5.0 0.00 0.00 0.00 54 951.0
20260901194409 68 221 5.0 6.0 0.00 0.00 0.00 55 951.0
20260901193907 68 222 5.0 6.0 0.00 0.00 0.00 55 951.0
20260901193411 68 220 5.0 6.0 0.00 0.00 0.00 55 951.0
20260901192408 68 226 3.0 6.0 0.00 0.00 0.00 55 951.0
20260901191917 69 216 3.0 5.0 0.00 0.00 0.00 54 951.0
20260901191406 69 215 2.0 5.0 0.00 0.00 0.00 54 950.9
20260901190911 69 243 2.0 5.0 0.00 0.00 0.00 54 950.9
20260901185903 69 255 2.0 5.0 0.00 0.00 0.00 54 950.8
20260901185403 69 255 2.0 5.0 0.00 0.00 0.00 54 950.8
20260901184903 69 255 2.0 5.0 0.00 0.00 0.00 53 950.8
20260901183903 70 259 5.0 5.0 0.00 0.00 0.00 54 950.7
20260901183403 70 261 5.0 7.0 0.00 0.00 0.00 52 950.7
20260901182904 70 270 5.0 7.0 0.00 0.00 0.00 51 950.6
20260901182404 70 265 3.0 6.0 0.00 0.00 0.00 51 950.6
20260901181904 70 260 3.0 6.0 0.00 0.00 0.00 51 950.6
20260901181403 71 259 2.0 6.0 0.00 0.00 0.00 53 950.5
20260901180904 71 235 2.0 3.0 0.00 0.00 0.00 53 950.5
20260901180403 71 220 2.0 3.0 0.00 0.00 0.00 51 950.5
20260901175903 72 233 2.0 3.0 0.00 0.00 0.00 51 950.4
20260901175404 72 221 2.0 3.0 0.00 0.00 0.00 50 950.4
20260901174903 72 239 2.0 5.0 0.00 0.00 0.00 50 950.4
20260901174404 73 246 2.0 5.0 0.00 0.00 0.00 50 950.4
20260901173404 73 247 2.0 5.0 0.00 0.00 0.00 51 950.4
20260901172904 74 256 2.0 5.0 0.00 0.00 0.00 50 950.4
20260901171904 74 253 2.0 5.0 0.00 0.00 0.00 47 950.4
20260901171403 75 260 3.0 5.0 0.00 0.00 0.00 46 950.4
20260901170904 76 264 3.0 6.0 0.00 0.00 0.00 46 950.4
20260901170404 77 261 3.0 6.0 0.00 0.00 0.00 44 950.4
20260901165904 77 280 3.0 5.0 0.00 0.00 0.00 43 950.4
20260901165403 78 278 2.0 5.0 0.00 0.00 0.00 43 950.4
20260901164904 79 260 2.0 5.0 0.00 0.00 0.00 42 950.4
20260901164404 79 319 2.0 6.0 0.00 0.00 0.00 42 950.6
20260901163404 80 294 3.0 6.0 0.00 0.00 0.00 41 950.6
20260901162904 80 245 3.0 6.0 0.00 0.00 0.00 41 950.6
20260901162404 81 11 3.0 6.0 0.00 0.00 0.00 41 950.6
20260901161904 81 319 3.0 6.0 0.00 0.00 0.00 40 950.6
20260901161404 81 335 3.0 6.0 0.00 0.00 0.00 40 950.6
20260901160903 81 273 3.0 6.0 0.00 0.00 0.00 40 950.6
20260901155904 81 358 5.0 8.0 0.00 0.00 0.00 41 950.6
20260901155403 82 298 5.0 8.0 0.00 0.00 0.00 40 950.6
20260901154904 82 310 5.0 8.0 0.00 0.00 0.00 40 950.6
20260901154403 81 345 3.0 8.0 0.00 0.00 0.00 40 950.5
20260901153903 81 276 3.0 7.0 0.00 0.00 0.00 40 950.5
20260901153403 81 245 6.0 7.0 0.00 0.00 0.00 41 950.5
20260901152904 80 247 6.0 7.0 0.00 0.00 0.00 40 950.5
20260901152403 80 237 5.0 7.0 0.00 0.00 0.00 41 950.5
20260901151903 80 239 5.0 9.0 0.00 0.00 0.00 40 950.5
20260901151404 80 226 2.0 9.0 0.00 0.00 0.00 40 950.5
20260901150404 80 319 6.0 6.0 0.00 0.00 0.00 42 950.5
20260901145403 80 220 5.0 10.0 0.00 0.00 0.00 42 950.5
20260901144904 80 247 5.0 10.0 0.00 0.00 0.00 40 950.5
20260901143403 81 260 6.0 8.0 0.00 0.00 0.00 40 950.5
20260901142904 80 243 6.0 8.0 0.00 0.00 0.00 41 950.6
20260901142404 80 245 6.0 9.0 0.00 0.00 0.00 41 950.6
20260901141904 80 269 6.0 9.0 0.00 0.00 0.00 41 950.6
20260901140403 80 75 5.0 8.0 0.00 0.00 0.00 44 950.7
20260901135904 79 38 5.0 8.0 0.00 0.00 0.00 44 950.7
20260901135404 79 242 5.0 8.0 0.00 0.00 0.00 41 950.7
20260901134904 79 265 5.0 8.0 0.00 0.00 0.00 42 950.7
20260901134403 80 289 5.0 8.0 0.00 0.00 0.00 41 950.8
20260901133904 80 311 5.0 7.0 0.00 0.00 0.00 43 950.8
20260901133404 79 331 5.0 7.0 0.00 0.00 0.00 43 950.8
20260901132904 79 251 5.0 9.0 0.00 0.00 0.00 41 951.0
20260901132404 79 272 8.0 13.0 0.00 0.00 0.00 42 951.0
20260901131904 79 256 8.0 13.0 0.00 0.00 0.00 42 951.0
20260901131404 79 256 2.0 13.0 0.00 0.00 0.00 43 951.0
20260901130903 79 251 2.0 7.0 0.00 0.00 0.00 44 951.0
20260901130404 79 241 6.0 3.0 0.00 0.00 0.00 44 951.0